Weather in Uralsk

Kazakhstan     51°12′14″N   51°22′13″E
temp.,
°C
wind,
m/s
gust,
m/s
humid.,
%
clouds,
%
prec.,
mm/h
press.,
hPa
HPBL,
m
17 may, mon
mon1723:00+20ese495722 0.4 1018136
02:00+20ese36532 0.0 101882
05:00+19sse33485 0.0 101831
08:00+21se354014 0.0 1019125
11:00+28sse35260 0.0 1019522
14:00+31sse67190 0.0 10193156
17:00+31sse56190 0.0 10182842
20:00+28sse11280 0.0 101711
18 may, tue
tue1823:00+23ene33270 0.0 101716
02:00+20e44310 0.0 101745
05:00+19e33380 0.0 101730
08:00+21ene24400 0.0 1017120
11:00+29se35260 0.0 1016637
14:00+33ese34161 0.0 10163658
17:00+33e55162 0.0 10153753
20:00+28ne453120 0.0 101485
19 may, wed
wed1923:00+23ene46355 0.0 101575
02:00+21ene45370 0.0 101466
05:00+18ene48502 0.0 1014122
08:00+21ene49565 0.0 1015259
11:00+28e67405 0.0 1014939
14:00+30e78325 0.0 10142370
17:00+30ese89332 0.0 10132861
20:00+27e813420 0.0 1013702
20 may, thu
thu2023:00+23e917410 0.0 1015625
02:00+20ese716460 0.0 1015527
05:00+18ese614490 0.0 1016442
08:00+19ese613540 0.0 1017542
11:00+23se78450 0.0 10171098
14:00+26se684098 0.0 10162247
17:00+27se893382 0.0 10142869
20:00+17wsw61179100 1.4 1016432
21 may, fri
fri2123:00+16s1184100 1.9 101691
02:00+14sw22921 0.0 101715
05:00+13wsw119016 0.0 101810
08:00+17wnw11734 0.0 1019191
11:00+21s235485 0.0 10191008
14:00+23sw444717 0.0 10191267
17:00+25wsw333919 0.0 10192088
20:00+23wnw45491 0.0 1019222